Simultaneous Nadir Overpasses (SNOs) Predictions

Prediction of SNOs between AQUA and NOAA-19 Satellite Orbit:

Table of predicted SNOs for the next 14.0 days since TLE Epoch: 7/5/2012
Index Date (AQUA) Time (AQUA) AQUA Lat,Lon Date (NOAA-19) Time (NOAA-19) NOAA-19 Lat,Lon Distance(km) Time Diff (sec)
1 07/07/2012 11:33:27 -46.27, 39.13 07/07/2012 11:33:31 -46.26, 39.13 0.81 4
2 07/07/2012 12:10:42 81.79, -61.80 07/07/2012 12:11:55 81.11, -62.44 76.18 73
3 07/09/2012 15:28:19 46.05, 160.34 07/09/2012 15:27:10 45.99, 160.63 23.67 69
4 07/09/2012 16:17:06 -48.58, -31.06 07/09/2012 16:17:31 -48.57, -31.07 1.00 25
5 07/11/2012 20:12:37 46.03, 89.26 07/11/2012 20:11:51 45.98, 89.46 17.02 46
6 07/11/2012 21:00:37 -51.33,-100.97 07/11/2012 21:01:23 -51.33,-100.98 0.56 46
7 07/14/2012 00:56:55 46.00, 18.17 07/14/2012 00:56:32 45.98, 18.30 10.18 23
8 07/14/2012 01:44:02 -54.42,-170.59 07/14/2012 01:45:09 -54.42,-170.57 1.55 67
9 07/16/2012 05:41:11 46.07, -52.88 07/16/2012 05:41:12 46.04, -52.85 4.64 1
10 07/16/2012 06:18:37 -81.84,-158.49 07/16/2012 06:19:50 -81.17,-158.63 74.89 73
11 07/18/2012 09:36:05 -46.04, 68.38 07/18/2012 09:34:53 -45.96, 68.71 27.07 72




NCC Satellite Simultaneous Nadir Overpasses (SNOs) Prediction Service
